Regional Weather Roundup
Issued by NWS

Home | Current Version | Previous Version | Graphics & Text | Print | Product List | Glossary Off
Versions: 1 2 3 4 5 6 7 8 9 10 11 12 13 14 15 16 17 18 19 20 21 22 23 24 25 26 27 28 29 30 31 32 33 34 35 36 37 38 39 40 41 42 43 44 45 46 47 48 49 50

000
ASUS43 KMKX 281011
RWRWI

WISCONSIN REGIONAL WEATHER ROUNDUP
NATIONAL WEATHER SERVICE MILWAUKEE/SULLIVAN WI
500 AM CDT SAT MAR 28 2015

NOTE: "FAIR" INDICATES FEW OR NO CLOUDS BELOW 12,000 FEET WITH NO
SIGNIFICANT WEATHER AND/OR OBSTRUCTIONS TO VISIBILITY.

WIZ001-002-006>008-014>016-023>028-281100-
NORTHWEST WISCONSIN

CITY           SKY/WX    TMP DP  RH WIND       PRES   REMARKS
SUPERIOR ARPT  CLEAR     12  10  91 CALM      30.21S
ASHLAND        CLEAR     11   7  84 CALM      30.21S
HAYWARD        CLEAR     14   7  73 CALM      30.18S
SIREN          CLEAR     12   6  79 CALM      30.20R
CUMBERLAND     CLEAR     19  16  86 CALM      30.17S
RICE LAKE      CLEAR     17  12  82 CALM      30.20S
CHETEK         CLEAR     15  12  90 CALM      30.20R
LADYSMITH      CLEAR     17  14  86 CALM      30.20R
EAU CLAIRE     CLEAR     16  11  80 NE3       30.20R
MENOMONIE      CLEAR     19  15  82 CALM      30.21R
NEW RICHMOND   CLEAR     19  15  85 CALM      30.19F
OSCEOLA        CLEAR     18  13  80 E5        30.22S WCI  11
$$

WIZ003>005-009-010-017-018-281100-
NORTH CENTRAL WISCONSIN

CITY           SKY/WX    TMP DP  RH WIND       PRES   REMARKS
MANITOWISH WTR CLEAR      5   2  89 CALM      30.16R
ARBOR VITAE    CLEAR      7   2  82 CALM      30.16S
WOODRUFF       CLEAR      7   2  82 CALM      30.16S
RHINELANDER    CLEAR      8   3  80 E3        30.17R
EAGLE RIVER    FAIR       1  -4  81 CALM      30.16S
LAND O LAKES   CLEAR     -6 -10  81 CALM      30.17S
PHILLIPS       CLEAR     10   6  84 CALM      30.16S
TOMAHAWK       CLEAR      2  -1  86 CALM      30.18S
MEDFORD        CLEAR     13  10  90 CALM      30.17S
MERRILL        CLEAR      8   5  88 CALM      30.19S
$$

WIZ029-030-035-036-043>047-281100-
CENTRAL WISCONSIN

CITY           SKY/WX    TMP DP  RH WIND       PRES   REMARKS
WAUSAU         CLEAR     15   8  73 E3        30.19S
MOSINEE        CLEAR     14  10  85 CALM      30.21S
MARSHFIELD     CLEAR     18  10  71 CALM      30.20R
STEVENS POINT  CLEAR     10   5  83 CALM      30.22S
WAUPACA        CLEAR     17  13  82 CALM      30.25R
WAUTOMA        CLEAR      9   6  87 CALM      30.25R
WISC RAPIDS    CLEAR     10   6  84 CALM      30.23R
CAMP DOUGLAS   PTCLDY    11  11  99 E3        30.21S
$$

WIZ011>013-019>022-031-037>040-048>050-281100-
NORTHEAST WISCONSIN

CITY           SKY/WX    TMP DP  RH WIND       PRES   REMARKS
ANTIGO         CLEAR     13   5  71 SE6       30.18S WCI   3
SHAWANO        CLEAR     14  11  86 CALM      30.26S
OCONTO         CLEAR      9   7  90 CALM      30.26S
STURGEON BAY   CLEAR     16   0  48 CALM      30.27S
GREEN BAY      CLEAR     19  12  74 CALM      30.26R
MANITOWOC      CLEAR     17  13  84 NW3       30.26R
APPLETON       CLEAR     18  10  73 CALM      30.24S
CLINTONVILLE   CLEAR     16  12  86 CALM      30.25R
OSHKOSH        CLEAR     16  10  77 CALM      30.24S
$$

WIZ032>034-041-042-053>061-281100-
SOUTHWEST WISCONSIN

CITY           SKY/WX    TMP DP  RH WIND       PRES   REMARKS
LA CROSSE      PTCLDY    22  14  71 E5        30.23R WCI  16
SPARTA         PTCLDY    12   9  86 CALM      30.23R
VIROQUA        CLEAR     18  10  71 E6        30.19R WCI  10
BOSCOBEL       CLEAR     15  11  83 CALM      30.24R
PRAIRIE DU CHI FAIR      16  10  76 E5        30.24R WCI   9
PLATTEVILLE    PTCLDY    22  15  74 SE3       30.21R
$$

WIZ056-057-062-063-064-067-068-281100-
SOUTH CENTRAL WISCONSIN

CITY           SKY/WX    TMP DP  RH WIND       PRES   REMARKS
REEDSBURG      CLEAR     16  12  82 CALM      30.23R
BARABOO/DELLS  CLEAR     17   9  70 SE3       30.22R
LONE ROCK      CLEAR     18  11  74 E5        30.25R WCI  11
MINERAL POINT  PTCLDY    19  10  68 SE3       30.21R
MADISON        CLEAR     16  10  77 CALM      30.24R
MIDDLETON      CLEAR     20  15  78 SE3       30.24R
WATERTOWN      CLEAR     14  12  92 CALM      30.24R
MONROE         CLEAR     19  18  93 SE6       30.21R WCI  11
JANESVILLE     CLEAR     18  14  86 CALM      30.24R
$$

WIZ051-052-058>065-066-070>072-281100-
SOUTHEAST WISCONSIN

CITY           SKY/WX    TMP DP  RH WIND       PRES   REMARKS
MILWAUKEE      PTCLDY    20  11  68 NW6       30.25R WCI  12
WAUKESHA       CLEAR     14  12  92 W3        30.25R
MILWAUKEE/TIMM CLEAR     18  12  79 CALM      30.26R
RACINE         CLEAR     18  12  77 NW6       30.26R WCI  10
BURLINGTON     CLEAR     11   8  90 CALM      30.24R
KENOSHA        CLEAR     17  12  80 NW3       30.24R
FOND DU LAC    CLEAR     13   9  84 CALM      30.25R
SHEBOYGAN      CLEAR     17  11  77 CALM      30.25R
WEST BEND      CLEAR     14  12  92 CALM      30.24R
JUNEAU         CLEAR     15  11  85 CALM      30.25R
$$

LSZ147-162-281100-
LAKE SUPERIOR

STATION/POSITION TIME  TEMP    WIND        PRES    WAVE
                       AIR SEA DIR/SP/G            HT/PER
                 (UTC) (F)     (DEG/KT/KT) (MB)    (FT/S)
DEVILS ISLAND    1000   25     120/  2/  3 1024.2F
PORT WING        0900   14     130/  2/  4 1023.0F
SAXON HARBOR     0900   12        CALM     1023.0
$$

LMZ867-665-643>646-281100-
LAKE MICHIGAN

STATION/POSITION TIME  TEMP    WIND        PRES    WAVE
                       AIR SEA DIR/SP/G            HT/PER
                 (UTC) (F)     (DEG/KT/KT) (MB)    (FT/S)
NORTHPORT PIER   0900   16     290/  4/  6 1024.7S
SISTER BAY       0902   11        CALM       N/A
KEWAUNEE LAKESHO 0900   17     280/  1/  3 1023.5R
SHEBOYGAN LAKESH 1000   21     310/  7/  9 1026.0R
PORT WASHINGTON  0900   20     330/  5/  6 1024.7
MILWAUKEE LAKESH 0900   24     320/  3/  4   N/A
KENOSHA   LAKESH 1000   26      50/  7/ 10 1024.0R
$$

TC  - TEMPERATURE IN CELSIUS
VSB - VISIBILITY IN STATUTE MILES
WCI - WIND CHILL INDEX
HX  - HEAT INDEX




USA.gov is the U.S. government's official web portal to all federal, state and local government web resources and services.